ID TEMP HUMIDITY DATE
1 25 31 2021-04-14 04:36:31
2 25 23 2021-04-14 04:26:29
3 25 28 2021-04-14 04:16:29
4 25 30 2021-04-14 04:06:28
5 25 27 2021-04-14 03:56:28
6 25 31 2021-04-14 03:46:27
7 25 28 2021-04-14 03:36:27
8 25 26 2021-04-14 03:26:26
9 25 26 2021-04-14 03:16:23
10 25 28 2021-04-14 03:06:23
11 25 31 2021-04-14 02:56:22
12 25 28 2021-04-14 02:46:22
13 25 26 2021-04-14 02:36:21
14 25 27 2021-04-14 02:26:21
15 25 29 2021-04-14 02:16:21
16 25 28 2021-04-14 02:06:20
17 25 26 2021-04-14 01:56:20
18 25 26 2021-04-14 01:46:19
19 25 26 2021-04-14 01:36:19
20 25 26 2021-04-14 01:26:18
21 25 23 2021-04-14 01:16:18
22 25 25 2021-04-14 01:06:17
23 25 25 2021-04-14 00:56:17
24 25 25 2021-04-14 00:46:17
25 25 25 2021-04-14 00:36:16
26 26 25 2021-04-14 00:26:16
27 26 25 2021-04-14 00:16:15
28 26 26 2021-04-14 00:06:15
29 26 22 2021-04-13 23:56:14
30 26 22 2021-04-13 23:46:14
31 27 22 2021-04-13 23:36:13
32 27 40 2021-04-13 23:26:12
33 26 43 2021-04-13 23:16:11
34 27 35 2021-04-13 23:06:09
35 26 33 2021-04-13 22:56:09
36 26 32 2021-04-13 22:46:08
37 26 36 2021-04-13 22:36:08
38 26 32 2021-04-13 22:26:07
39 25 24 2021-04-13 22:16:07
40 25 23 2021-04-13 22:06:06
41 25 23 2021-04-13 21:56:06
42 25 24 2021-04-13 21:46:06
43 25 24 2021-04-13 21:36:05
44 25 23 2021-04-13 21:26:05
45 25 23 2021-04-13 21:16:04
46 25 23 2021-04-13 21:06:04
47 25 23 2021-04-13 20:56:03
48 25 23 2021-04-13 20:46:03
49 26 23 2021-04-13 20:36:02
50 26 23 2021-04-13 20:26:02
51 26 23 2021-04-13 20:16:02
52 26 25 2021-04-13 20:06:01
53 26 22 2021-04-13 19:56:01
54 26 23 2021-04-13 19:46:00
55 26 23 2021-04-13 19:36:00
56 26 23 2021-04-13 19:25:59
57 26 23 2021-04-13 19:15:59
58 27 23 2021-04-13 19:05:58
59 27 23 2021-04-13 18:55:58
60 27 24 2021-04-13 18:45:58
61 27 24 2021-04-13 18:35:57
62 27 24 2021-04-13 18:25:57
63 27 24 2021-04-13 18:15:56
64 27 24 2021-04-13 18:05:56
65 27 24 2021-04-13 17:55:55
66 27 24 2021-04-13 17:45:54
67 27 24 2021-04-13 17:35:52
68 27 24 2021-04-13 17:25:51
69 27 24 2021-04-13 17:15:49
70 28 24 2021-04-13 17:05:48
71 28 24 2021-04-13 16:55:46
72 28 24 2021-04-13 16:45:44
73 28 24 2021-04-13 16:35:43
74 28 24 2021-04-13 16:25:41
75 28 24 2021-04-13 16:15:40
76 28 25 2021-04-13 16:05:38
77 28 22 2021-04-13 15:55:32
78 28 18 2021-04-13 15:45:30
79 29 22 2021-04-13 15:35:29
80 28 41 2021-04-13 15:25:27
81 27 34 2021-04-13 15:15:25
82 27 34 2021-04-13 15:05:24
83 27 32 2021-04-13 14:55:23
84 28 31 2021-04-13 14:45:21
85 28 31 2021-04-13 14:35:17
86 28 30 2021-04-13 14:25:16
87 28 28 2021-04-13 14:15:14
88 28 28 2021-04-13 14:05:13
89 28 28 2021-04-13 13:55:11
90 28 28 2021-04-13 13:45:10
91 27 28 2021-04-13 13:35:08
92 27 28 2021-04-13 13:25:06
93 27 29 2021-04-13 13:15:05
94 27 29 2021-04-13 13:05:03
95 27 29 2021-04-13 12:55:02
96 27 28 2021-04-13 12:45:00
97 27 29 2021-04-13 12:35:00
98 27 29 2021-04-13 12:24:59
99 26 30 2021-04-13 12:14:58
100 26 29 2021-04-13 12:04:56
1   2   3   4   5       Next